Skip Page Navigation
NASA JPL Caltech
NASA Logo - Jet Propulsion Laboratory + View the NASA Portal
+ Center for Near-Earth Object Studies
JPL Home Earth Solar System Stars & Galaxies Technology
JPL Solar System Dynamics
BODIES ORBITS EPHEMERIDES TOOLS PHYSICAL DATA DISCOVERY FAQ SITE MAP
IMPORTANT: The SSD Announcement email list is now available. Major changes are coming in the near future, including possible hostname and/or URL changes. To be notified of such changes, subscribe to this email list.

Please visit this page for more details.


JPL Small-Body Database Browser
Search: [ help ]  
523185 (2016 TC100)
Classification: Main-belt Asteroid          SPK-ID: 2523185
Ephemeris | Orbit Diagram | Orbital Elements | Mission Design | Physical Parameters | Discovery Circumstances ]

[ show orbit diagram ]
Orbital Elements at Epoch 2458600.5 (2019-Apr-27.0) TDB
Reference: JPL 3 (heliocentric ecliptic J2000)
 Element Value Uncertainty (1-sigma)   Units 
e .05207369670547075 7.6908e-07  
a 2.645303651887692 2.7481e-07 au
q 2.507552911825418 1.7923e-06 au
i 21.51264659216918 2.1785e-05 deg
node 202.2982327005434 2.6808e-05 deg
peri 237.2432235394896 0.00074863 deg
M 186.0106566695839 0.00067467 deg
tp 2459360.007159905988
(2021-May-25.50715991)
0.0028326 TDB
period 1571.490370228653
4.30
0.00024488
6.704e-07
d
yr
n .2290819000994704 3.5697e-08 deg/d
Q 2.783054391949966 2.8912e-07 au
  Orbit Determination Parameters
   # obs. used (total)      52  
   data-arc span      3835 days (10.50 yr)  
   first obs. used      2007-10-16  
   last obs. used      2018-04-16  
   planetary ephem.      DE431  
   SB-pert. ephem.      SB431-N16  
   condition code      1  
   norm. resid. RMS      .78421  
   source      ORB  
   producer      Otto Matic  
   solution date      2018-May-31 17:56:03  

Additional Information
 Earth MOID = 1.55386 au 
 Jupiter MOID = 2.38857 au 
 T_jup = 3.292 
[ show covariance matrix ]

Ephemeris | Orbit Diagram | Orbital Elements | Mission Design | Physical Parameters | Discovery Circumstances ]

Physical Parameter Table
Parameter Symbol Value Units Sigma Reference Notes
absolute magnitude H 16.9   n/a MPO448169  

523185 (2016 TC100)          Discovered 2014-Mar-27 by Pan-STARRS 1 at Haleakala
Reference: Last Updated: 2018-05-31
Ephemeris | Orbit Diagram | Orbital Elements | Mission Design | Physical Parameters | Discovery Circumstances ]
ABOUT SSD CREDITS/AWARDS PRIVACY/COPYRIGHT GLOSSARY LINKS
FirstGov 2020-Jan-27 10:39 UT
(server date/time)  
NASA Home Page
Site Manager:   Ryan S. Park
Webmaster  Alan B. Chamberlin